TimeCST,TemperatureF,Dew PointF,Humidity,Sea Level PressureIn,VisibilityMPH,Wind Direction,Wind SpeedMPH,Gust SpeedMPH,PrecipitationIn,Events,Conditions,WindDirDegrees,DateUTC
12:09 AM,17.1,12.9,84,30.11,6.0,WSW,10.4,-,N/A,,Overcast,240,2013-12-25 06:09:00
12:52 AM,17.1,16.0,96,30.18,4.0,WSW,9.2,-,N/A,,Overcast,250,2013-12-25 06:52:00
1:12 AM,18.0,16.0,92,30.10,4.0,West,6.9,-,N/A,,Overcast,260,2013-12-25 07:12:00
1:52 AM,19.0,16.0,88,30.18,7.0,WNW,10.4,-,N/A,,Overcast,300,2013-12-25 07:52:00
2:08 AM,19.0,16.0,88,30.10,9.0,NW,8.1,-,N/A,,Overcast,310,2013-12-25 08:08:00
2:52 AM,19.0,16.0,88,30.19,9.0,West,6.9,-,N/A,,Overcast,270,2013-12-25 08:52:00
3:39 AM,18.0,15.1,88,30.09,9.0,SW,5.8,-,N/A,,Overcast,220,2013-12-25 09:39:00
3:52 AM,18.0,15.1,88,30.18,9.0,SW,8.1,-,N/A,,Overcast,230,2013-12-25 09:52:00
4:52 AM,19.9,17.1,89,30.16,9.0,WSW,11.5,-,N/A,,Overcast,250,2013-12-25 10:52:00
5:52 AM,21.9,18.0,85,30.14,9.0,WSW,16.1,-,N/A,,Overcast,240,2013-12-25 11:52:00
6:08 AM,21.9,19.0,89,30.06,8.0,WSW,12.7,-,N/A,,Overcast,240,2013-12-25 12:08:00
6:22 AM,21.9,19.0,89,30.06,1.8,SW,12.7,-,0.00,Snow,Light Snow,230,2013-12-25 12:22:00
6:29 AM,21.9,19.0,89,30.06,1.8,SW,13.8,-,0.00,Snow,Light Snow,230,2013-12-25 12:29:00
6:52 AM,21.9,19.9,92,30.12,1.8,SW,12.7,-,0.00,Snow,Light Snow,220,2013-12-25 12:52:00
6:58 AM,21.9,19.9,92,30.05,2.0,SW,13.8,-,0.00,Snow,Light Snow,230,2013-12-25 12:58:00
7:26 AM,23.0,19.9,88,30.06,5.0,SW,16.1,-,0.00,Snow,Light Snow,230,2013-12-25 13:26:00
7:47 AM,23.0,19.4,86,30.06,7.0,SW,13.8,-,0.00,,Overcast,220,2013-12-25 13:47:00
7:52 AM,23.0,19.9,88,30.13,7.0,SW,16.1,-,0.00,,Overcast,220,2013-12-25 13:52:00
8:18 AM,23.0,19.9,88,30.05,1.8,SSW,17.3,-,0.00,Snow,Light Snow,210,2013-12-25 14:18:00
8:26 AM,23.0,19.9,88,30.06,3.0,SW,16.1,-,0.00,Snow,Light Snow,220,2013-12-25 14:26:00
8:33 AM,23.0,19.9,88,30.06,1.8,SW,13.8,-,0.00,Snow,Light Snow,220,2013-12-25 14:33:00
8:37 AM,23.0,19.9,88,30.07,0.8,SW,13.8,-,0.00,Snow,Light Snow,230,2013-12-25 14:37:00
8:52 AM,23.0,21.0,92,30.14,0.8,WSW,12.7,-,0.00,Snow,Light Snow,240,2013-12-25 14:52:00
9:06 AM,23.0,21.0,92,30.08,1.2,WSW,12.7,-,0.00,Snow,Light Snow,240,2013-12-25 15:06:00
9:14 AM,23.0,21.0,92,30.08,2.0,WSW,12.7,-,0.00,Snow,Light Snow,250,2013-12-25 15:14:00
9:19 AM,23.0,21.0,92,30.08,3.0,WSW,13.8,-,0.00,Snow,Light Snow,250,2013-12-25 15:19:00
9:42 AM,24.1,21.9,91,30.09,1.5,West,13.8,-,0.00,Snow,Light Snow,260,2013-12-25 15:42:00
9:44 AM,24.1,21.0,88,30.09,0.8,West,13.8,-,0.00,Snow,Light Snow,260,2013-12-25 15:44:00
9:52 AM,24.1,21.9,91,30.15,0.2,West,10.4,-,0.00,Fog-Snow,Heavy Snow,260,2013-12-25 15:52:00
10:00 AM,24.1,21.9,91,30.09,1.5,West,11.5,-,0.00,Snow,Light Snow,260,2013-12-25 16:00:00
10:03 AM,24.1,21.9,91,30.09,2.5,West,10.4,-,0.00,Snow,Light Snow,260,2013-12-25 16:03:00
10:18 AM,24.1,23.0,96,30.09,1.2,West,9.2,-,0.00,Snow,Light Snow,260,2013-12-25 16:18:00
10:25 AM,25.0,23.0,92,30.09,3.0,West,12.7,-,0.00,Snow,Light Snow,270,2013-12-25 16:25:00
10:35 AM,27.0,23.0,85,30.10,6.0,West,13.8,-,0.00,,Mostly Cloudy,280,2013-12-25 16:35:00
10:43 AM,28.0,24.1,85,30.10,7.0,West,13.8,-,0.00,,Mostly Cloudy,280,2013-12-25 16:43:00
10:52 AM,28.0,24.1,85,30.17,7.0,WNW,15.0,-,0.00,,Mostly Cloudy,290,2013-12-25 16:52:00
11:52 AM,30.0,26.1,85,30.16,10.0,WNW,16.1,-,N/A,,Overcast,300,2013-12-25 17:52:00
12:17 PM,30.0,26.1,85,30.10,10.0,WNW,17.3,-,N/A,,Overcast,300,2013-12-25 18:17:00
12:37 PM,30.9,26.1,82,30.10,10.0,WNW,17.3,-,N/A,,Overcast,300,2013-12-25 18:37:00
12:52 PM,30.9,27.0,85,30.16,10.0,WNW,16.1,-,N/A,,Overcast,300,2013-12-25 18:52:00
1:52 PM,28.0,23.0,81,30.18,3.0,NNW,19.6,-,N/A,,Haze,330,2013-12-25 19:52:00
2:12 PM,28.0,24.1,85,30.12,9.0,NNW,12.7,-,N/A,,Overcast,330,2013-12-25 20:12:00
2:52 PM,28.0,23.0,81,30.19,10.0,NNW,12.7,-,N/A,,Partly Cloudy,330,2013-12-25 20:52:00
3:52 PM,25.0,21.0,85,30.21,10.0,WNW,9.2,-,N/A,,Scattered Clouds,290,2013-12-25 21:52:00
4:52 PM,21.9,14.0,72,30.23,10.0,WNW,17.3,-,N/A,,Clear,300,2013-12-25 22:52:00
5:52 PM,17.1,10.9,77,30.24,10.0,WNW,9.2,-,N/A,,Clear,290,2013-12-25 23:52:00
6:52 PM,14.0,10.0,84,30.25,10.0,WNW,10.4,-,N/A,,Partly Cloudy,290,2013-12-26 00:52:00
7:06 PM,16.0,12.0,84,30.18,10.0,WNW,6.9,-,N/A,,Mostly Cloudy,300,2013-12-26 01:06:00
7:52 PM,17.1,14.0,88,30.24,10.0,WNW,6.9,-,N/A,,Overcast,290,2013-12-26 01:52:00
8:52 PM,19.9,16.0,85,30.23,10.0,West,10.4,-,N/A,,Mostly Cloudy,270,2013-12-26 02:52:00
9:52 PM,15.1,12.9,91,30.20,10.0,SW,6.9,-,N/A,,Scattered Clouds,220,2013-12-26 03:52:00
10:52 PM,18.0,15.1,88,30.19,10.0,WSW,10.4,-,N/A,,Overcast,240,2013-12-26 04:52:00
11:52 PM,19.9,17.1,89,30.18,10.0,SW,12.7,-,N/A,,Overcast,230,2013-12-26 05:52:00